This is the latest recevied weather packets stored in our database for station/object OK1HOL-13. If no packets are shown the sender has not sent any weather packets the latest 10 day(s).
| Time | Temp. | Humidity | Pressure | Rain* | Wind** | Luminosity | Snow |
|---|---|---|---|---|---|---|---|
| 1778227569 | 12.22° C | 65% | 1019.3 hPa | - | - | 109 W/m² | - |
| 1778226969 | 11.67° C | 67% | 1019.3 hPa | - | - | 100 W/m² | - |
| 1778226369 | 12.22° C | 65% | 1019.3 hPa | - | - | 80 W/m² | - |
| 1778225769 | 12.22° C | 65% | 1019.2 hPa | - | - | 105 W/m² | - |
| 1778225169 | 11.67° C | 67% | 1019.2 hPa | - | - | 105 W/m² | - |
| 1778224569 | 12.22° C | 64% | 1019.1 hPa | - | - | 89 W/m² | - |
| 1778223969 | 12.22° C | 65% | 1019 hPa | - | - | 94 W/m² | - |
| 1778223369 | 11.67° C | 66% | 1018.8 hPa | - | - | 90 W/m² | - |
| 1778222769 | 11.67° C | 67% | 1018.8 hPa | - | - | 77 W/m² | - |
| 1778222169 | 11.11° C | 67% | 1018.7 hPa | - | - | 66 W/m² | - |
| 1778221569 | 11.11° C | 67% | 1018.7 hPa | - | - | 67 W/m² | - |
| 1778220969 | 11.11° C | 67% | 1018.6 hPa | - | - | 58 W/m² | - |
| 1778220369 | 11.11° C | 67% | 1018.5 hPa | - | - | 55 W/m² | - |
| 1778219769 | 10.56° C | 69% | 1018.4 hPa | - | - | 54 W/m² | - |
| 1778219169 | 10.56° C | 70% | 1018.4 hPa | - | - | 51 W/m² | - |
| 1778218569 | 10.56° C | 70% | 1018.3 hPa | - | - | 53 W/m² | - |
| 1778217969 | 10.56° C | 72% | 1018.2 hPa | - | - | 51 W/m² | - |
| 1778217369 | 10° C | 72% | 1018.2 hPa | - | - | 41 W/m² | - |
| 1778216769 | 10° C | 73% | 1018.2 hPa | - | - | 36 W/m² | - |
| 1778216169 | 10° C | 75% | 1018.1 hPa | - | - | 24 W/m² | - |
| 1778215569 | 10° C | 74% | 1018 hPa | - | - | 20 W/m² | - |
| 1778214969 | 10.56° C | 74% | 1017.9 hPa | - | - | 21 W/m² | - |
| 1778214369 | 10° C | 77% | 1017.9 hPa | - | - | 20 W/m² | - |
| 1778213769 | 10° C | 78% | 1017.8 hPa | - | - | 16 W/m² | - |
| 1778212569 | 10° C | 79% | 1017.8 hPa | - | - | 5 W/m² | - |
* Rain since midnight (hover to see other rain measurements)
** Current wind speed in m/s (hover to see current wind gust speed)